Toronto Pearson, Ontario

9:28 PM EDT on July 26, 2017 (GMT -0400)
Toronto-Pearson International

Weather History for CYYZ - January, 2014

Change the Weather History Date:

Friday, January 10, 2014

  Actual Average Record
Temperature  
Mean Temperature 26 °F -  
Max Temperature 37 °F 28 °F 45 °F (2017)
Min Temperature 15 °F 12 °F -9 °F (2004)
Degree Days  
Heating Degree Days 39    
Moisture  
Dew Point 25 °F    
Average Humidity 92    
Maximum Humidity 100    
Minimum Humidity 83    
Precipitation  
Precipitation 0.08 in 0.06 in - ()
Sea Level Pressure  
Sea Level Pressure 30.21 in    
Wind  
Wind Speed 3 mph ()    
Max Wind Speed 8 mph    
Max Gust Speed -    
Visibility 3.5 miles    
Events Snow    
Averages and records for this station are not official NWS values.
T = Trace of Precipitation, MM = Missing Value Source: Averaged Metar Reports

Daily Weather History Graph

Daily Weather History Graph

Search for Another Location

Airport or City:

Trip Planner

Search our weather history database for the weather conditions in past years. The results will help you decide how hot, cold, wet, or windy it might be!

Date:

Astronomy

Jan. 10, 2014 Rise Set
Actual Time 7:51 AM EST 5:01 PM EST
Civil Twilight 7:18 AM EST 5:33 PM EST
Nautical Twilight 6:43 AM EST 6:09 PM EST
Astronomical Twilight 6:08 AM EST 6:44 PM EST
Moon 1:06 PM EST (1/10) 2:53 AM EST (1/10)
Length of Visible Light 10h 14m
Length of Day
9h 10m
Waxing Gibbous, 75% of the Moon is Illuminated
Jan 10
Waxing Gibbous
Jan 15
Full
Jan 24
Last Quarter
Jan 30
New
Feb 6
First Quarter

Hourly Weather History & Observations

Time (EST) Temp. Windchill Dew Point Humidity Pressure Visibility Wind Dir Wind Speed Gust Speed Precip Events Conditions
12:00 AM 17.6 °F 10.7 °F 14.0 °F 86% 30.39 in 10.0 mi NW 4.6 mph - N/A Snow Light Snow Showers
12:53 AM 17.6 °F 12.3 °F 14.0 °F 86% 30.37 in 2.5 mi NE 3.5 mph - N/A Snow Light Snow
1:00 AM 17 °F - 14 °F 83% 30.37 in 2 mi NNE 2.3 mph - - Snow Light Snow
1:00 AM 17.6 °F - 14.0 °F 86% 30.37 in 2.5 mi NNE 2.3 mph - N/A Snow Light Snow
1:48 AM 17.6 °F - 15.8 °F 93% 30.36 in 2.5 mi Calm Calm - N/A Snow Light Snow
2:00 AM 17.6 °F - 15.8 °F 93% 30.36 in 2.5 mi North 2.3 mph - N/A Snow Light Snow
2:09 AM 17.6 °F 12.3 °F 15.8 °F 93% 30.36 in 1.5 mi NNE 3.5 mph - N/A Snow Light Snow
3:00 AM 17.6 °F 12.3 °F 15.8 °F 93% 30.35 in 2.5 mi NNE 3.5 mph - N/A Snow Light Snow
3:19 AM 19.4 °F 14.3 °F 15.8 °F 86% 30.35 in 4.0 mi NNE 3.5 mph - N/A Snow Light Snow
4:00 AM 19.4 °F - 17.6 °F 93% 30.32 in 6.0 mi NE 2.3 mph - N/A Snow Light Snow
4:23 AM 19.4 °F - 17.6 °F 93% 30.32 in 4.0 mi Calm Calm - N/A Snow Light Snow
5:00 AM 19.4 °F - 17.6 °F 93% 30.31 in 4.0 mi Calm Calm - N/A Snow Light Snow
6:00 AM 21.2 °F - 19.4 °F 93% 30.29 in 4.0 mi Calm Calm - N/A Snow Light Snow
7:00 AM 21 °F - 19 °F 89% 30.28 in 2 mi West 2.3 mph - - Snow Light Snow
7:00 AM 21.2 °F - 19.4 °F 93% 30.28 in 2.2 mi WNW 2.3 mph - N/A Snow Light Snow
7:49 AM 23.0 °F - 21.2 °F 93% 30.28 in 1.2 mi Calm Calm - N/A Snow Light Snow
8:00 AM 23.0 °F - 21.2 °F 93% 30.28 in 2.2 mi West 2.3 mph - N/A Snow Light Snow
8:38 AM 24.8 °F - 23.0 °F 93% 30.28 in 1.5 mi Calm Calm - N/A Snow Light Snow
9:00 AM 24.8 °F 19.1 °F 23.0 °F 93% 30.28 in 1.5 mi NNE 4.6 mph - N/A   Overcast
9:50 AM 26.6 °F - 24.8 °F 93% 30.28 in 1.2 mi Variable 2.3 mph - N/A   Overcast
10:00 AM 26.6 °F - 24.8 °F 93% 30.28 in 1.2 mi Calm Calm - N/A   Overcast
11:00 AM 28.4 °F 24.6 °F 26.6 °F 93% 30.27 in 1.2 mi SSE 3.5 mph - N/A   Overcast
11:09 AM 28.4 °F 23.3 °F 26.6 °F 93% 30.26 in 1.8 mi SSE 4.6 mph - N/A   Overcast
12:00 PM 30.2 °F 25.4 °F 28.4 °F 93% 30.22 in 2.0 mi South 4.6 mph - N/A   Overcast
12:35 PM 30.2 °F 24.3 °F 28.4 °F 93% 30.21 in 1.0 mi SSE 5.8 mph - N/A   Overcast
1:00 PM 31 °F - 29 °F 90% 30.20 in 1 mi South 4.6 mph - -   Mist
1:00 PM 30.2 °F 26.7 °F 28.4 °F 93% 30.19 in 1.0 mi South 3.5 mph - N/A   Overcast
2:00 PM 32.0 °F 26.4 °F 30.2 °F 93% 30.17 in 1.0 mi South 5.8 mph - N/A   Overcast
3:00 PM 32.0 °F 27.5 °F 30.2 °F 93% 30.15 in 1.5 mi SE 4.6 mph - N/A   Overcast
3:37 PM 32.0 °F 27.5 °F 30.2 °F 93% 30.14 in 1.0 mi ESE 4.6 mph - N/A   Overcast
4:00 PM 33.8 °F 29.6 °F 32.0 °F 93% 30.13 in 1.0 mi SE 4.6 mph - N/A   Overcast
4:16 PM 33.8 °F 28.6 °F 32.0 °F 93% 30.13 in 1.5 mi SE 5.8 mph - N/A   Overcast
4:34 PM 33.8 °F 27.7 °F 32.0 °F 93% 30.13 in 3.0 mi SE 6.9 mph - N/A   Overcast
4:51 PM 33.8 °F 28.6 °F 32.0 °F 93% 30.13 in 3.0 mi SE 5.8 mph - N/A   Overcast
5:00 PM 33.8 °F 28.6 °F 32.0 °F 93% 30.12 in 3.0 mi SE 5.8 mph - N/A   Overcast
5:39 PM 33.8 °F 27.7 °F 33.8 °F 100% 30.10 in 3.0 mi SE 6.9 mph - N/A   Overcast
6:00 PM 33.8 °F 27.7 °F 33.8 °F 100% 30.10 in 4.0 mi SE 6.9 mph - N/A   Overcast
6:24 PM 35.6 °F 29.2 °F 33.8 °F 93% 30.09 in 4.0 mi ESE 8.1 mph - N/A   Overcast
7:00 PM 35 °F - 33 °F 92% 30.09 in 4 mi Calm Calm - -   Mist
7:00 PM 35.6 °F 30.7 °F 33.8 °F 93% 30.08 in 4.0 mi SSE 5.8 mph - N/A   Overcast
7:40 PM 35.6 °F 29.9 °F 33.8 °F 93% 30.07 in 4.0 mi SE 6.9 mph - N/A   Overcast
8:00 PM 35.6 °F 30.7 °F 33.8 °F 93% 30.05 in 5.0 mi ESE 5.8 mph - N/A   Overcast
9:00 PM 35.6 °F 29.9 °F 33.8 °F 93% 30.00 in 12.0 mi ESE 6.9 mph - N/A   Overcast
9:36 PM 35.6 °F 29.9 °F 33.8 °F 93% 29.99 in 12.0 mi ESE 6.9 mph - N/A   Overcast
10:00 PM 37.4 °F 32.1 °F 33.8 °F 87% 29.97 in 12.0 mi ESE 6.9 mph - N/A   Overcast
11:00 PM 37.4 °F 32.8 °F 33.8 °F 87% 29.92 in 12.0 mi East 5.8 mph - N/A   Overcast